Trieste, Italy

5:50 AM CEST on May 30, 2017 (GMT +0200)
Trieste

Weather History for LIVT - November, 2013

Change the Weather History Date:

Saturday, November 2, 2013

  Actual Average Record
Temperature  
Mean Temperature 60 °F -  
Max Temperature 64 °F 54 °F 75 °F (2004)
Min Temperature 57 °F 46 °F 42 °F (2006)
Degree Days  
Heating Degree Days 4    
Growing Degree Days 10 (Base 50)    
Moisture  
Dew Point 58 °F    
Average Humidity 92    
Maximum Humidity 100    
Minimum Humidity 88    
Precipitation  
Precipitation 0.20 in 0.15 in - ()
Sea Level Pressure  
Sea Level Pressure 30.01 in    
Wind  
Wind Speed 3 mph ()    
Max Wind Speed 9 mph    
Max Gust Speed -    
Visibility 6.4 miles    
Events Rain    
Averages and records for this station are not official NWS values.
T = Trace of Precipitation, MM = Missing Value Source: Averaged Metar Reports

Daily Weather History Graph

Daily Weather History Graph

Search for Another Location

Airport or City:

Trip Planner

Search our weather history database for the weather conditions in past years. The results will help you decide how hot, cold, wet, or windy it might be!

Date:

Astronomy

Nov. 02, 2013 Rise Set
Actual Time 6:46 AM CET 4:50 PM CET
Civil Twilight 6:15 AM CET 5:21 PM CET
Nautical Twilight 5:39 AM CET 5:56 PM CET
Astronomical Twilight 5:05 AM CET 6:31 PM CET
Moon 5:21 AM CET (11/2) 4:12 PM CET (11/2)
Length of Visible Light 11h 06m
Length of Day
10h 04m
Waning Crescent, 2% of the Moon is Illuminated
Nov 2
Waning Crescent
Nov 3
New
Nov 10
First Quarter
Nov 17
Full
Nov 25
Last Quarter

Hourly Weather History & Observations

Time (CET) Temp. Dew Point Humidity Pressure Visibility Wind Dir Wind Speed Gust Speed Precip Events Conditions
12:55 AM 57.2 °F 53.6 °F 88% 30.09 in - NE 3.5 mph - N/A   Clear
1:00 AM 57 °F 54 °F 88% 30.12 in 12 mi NE 3.5 mph - -   Partly Cloudy
1:55 AM 59.0 °F 55.4 °F 88% 30.09 in - ESE 5.8 mph - N/A   Clear
2:55 AM 59.0 °F 55.4 °F 88% 30.06 in - ESE 3.5 mph - N/A   Clear
3:55 AM 59.0 °F 55.4 °F 88% 30.06 in 6.2 mi East 3.5 mph - N/A   Partly Cloudy
4:55 AM 59.0 °F 55.4 °F 88% 30.04 in - ESE 2.3 mph - N/A   Clear
5:55 AM 59.0 °F 55.4 °F 88% 30.04 in - North 2.3 mph - N/A   Clear
6:55 AM 59.0 °F 55.4 °F 88% 30.04 in - East 4.6 mph - N/A   Clear
7:55 AM 59.0 °F 55.4 °F 88% 30.01 in - East 4.6 mph - N/A   Clear
8:55 AM 59.0 °F 59.0 °F 100% 30.01 in 5.0 mi ESE 1.2 mph - N/A Rain Rain
9:55 AM 59.0 °F 57.2 °F 94% 30.01 in 5.6 mi East 3.5 mph - N/A Rain Rain
10:55 AM 60.8 °F 57.2 °F 88% 30.01 in 6.2 mi SSW 2.3 mph - N/A   Scattered Clouds
11:55 AM 60.8 °F 59.0 °F 94% 30.01 in 6.2 mi SE 2.3 mph - N/A   Scattered Clouds
12:55 PM 60.8 °F 59.0 °F 94% 29.98 in 6.2 mi SSW 1.2 mph - N/A   Scattered Clouds
1:00 PM 61 °F 59 °F 90% 30.00 in 6 mi SSW 1.2 mph - -   Partly Cloudy
1:55 PM 62.6 °F 59.0 °F 88% 29.95 in 6.2 mi ESE 1.2 mph - N/A   Scattered Clouds
2:55 PM 64.4 °F 60.8 °F 88% 29.98 in 6.2 mi SE 1.2 mph - N/A   Mostly Cloudy
3:55 PM 64.4 °F 62.6 °F 94% 29.95 in 6.2 mi SE 2.3 mph - N/A   Scattered Clouds
4:55 PM 62.6 °F 62.6 °F 100% 29.95 in 6.2 mi South 8.1 mph - N/A   Scattered Clouds
5:55 PM 64.4 °F 62.6 °F 94% 29.95 in 6.2 mi NW 9.2 mph - N/A Rain Rain
6:55 PM 62.6 °F 60.8 °F 94% 29.98 in 6.2 mi NE 4.6 mph - N/A   Scattered Clouds
7:00 PM 63 °F 62 °F 93% 29.98 in 6 mi NE 4.6 mph - - Rain Light Rain
7:55 PM 62.6 °F 60.8 °F 94% 29.98 in 6.2 mi ENE 5.8 mph - N/A   Mostly Cloudy
8:55 PM 60.8 °F 59.0 °F 94% 29.98 in 6.2 mi ENE 4.6 mph - N/A   Mostly Cloudy
9:55 PM 60.8 °F 59.0 °F 94% 29.98 in 6.2 mi ENE 4.6 mph - N/A   Mostly Cloudy
10:55 PM 60.8 °F 59.0 °F 94% 29.98 in 6.2 mi ENE 3.5 mph - N/A   Scattered Clouds
11:55 PM 60.8 °F 59.0 °F 94% 29.95 in 6.2 mi ENE 3.5 mph - N/A   Scattered Clouds